Regional Weather Roundup
Issued by NWS

Home | Current Version | Previous Version | Graphics & Text | Print | Product List | Glossary On
Versions: 1 2 3 4 5 6 7 8 9 10 11 12 13 14 15 16 17 18 19 20 21 22 23 24 25 26 27 28 29 30 31 32 33 34 35 36 37 38 39 40 41 42 43 44 45 46 47 48 49 50
000
ASUS43 KMKX 220711
RWRWI

WISCONSIN REGIONAL WEATHER ROUNDUP
NATIONAL WEATHER SERVICE MILWAUKEE/SULLIVAN WI
200 AM CDT FRI AUG 22 2014

NOTE: "FAIR" INDICATES FEW OR NO CLOUDS BELOW 12,000 FEET WITH NO
SIGNIFICANT WEATHER AND/OR OBSTRUCTIONS TO VISIBILITY.

WIZ001-002-006>008-014>016-023>028-220800-
NORTHWEST WISCONSIN

CITY           SKY/WX    TMP DP  RH WIND       PRES   REMARKS
SUPERIOR ARPT  CLOUDY    60  60  99 E12G18    29.91S FOG
ASHLAND        CLOUDY    66  64  93 N5        29.90F
HAYWARD        CLOUDY    69  68  96 NE5       29.89F FOG
SIREN          CLOUDY    69  68  97 NE3       29.86F
RICE LAKE      MOCLDY    69  67  94 CALM      29.87F FOG
LADYSMITH      CLOUDY    70  68  95 E7        29.90F FOG
EAU CLAIRE     CLEAR     72  71  97 S3        29.84F
MENOMONIE      SUNNY     71  70  97 E3        29.85F FOG
NEW RICHMOND   FOG       68  68 100 CALM      29.85F VSB 1/4
OSCEOLA        CLOUDY    71  71 100 CALM      29.87S
$$

WIZ003>005-009-010-017-018-220800-
NORTH CENTRAL WISCONSIN

CITY           SKY/WX    TMP DP  RH WIND       PRES   REMARKS
WOODRUFF       CLOUDY    65  62  91 SE6       29.94F FOG
RHINELANDER    CLOUDY    63  62  97 SE6       29.95F FOG
EAGLE RIVER    DRIZZLE   63  63  99 SE3       29.95F
LAND O LAKES   LGT RAIN  64  63  97 CALM      29.96F
PHILLIPS       CLOUDY    65  65  99 E5        29.92F FOG
TOMAHAWK       CLOUDY    64  62  96 CALM      29.94F FOG
MEDFORD        FOG       65  65 100 E5        29.92F VSB 1/4
MERRILL        RAIN      65  65 100 SE3       29.93F
$$

WIZ029-030-035-036-043>047-220800-
CENTRAL WISCONSIN

CITY           SKY/WX    TMP DP  RH WIND       PRES   REMARKS
WAUSAU         FOG       65  65 100 E5        29.91F VSB 1/2
MOSINEE        FOG       64  64 100 E3        29.93F VSB 1/4
MARSHFIELD     CLOUDY    71  69  93 E9        29.91F FOG
STEVENS POINT  FOG       65  65  98 SE6       29.91F VSB 1
WAUPACA        CLOUDY    71  69  95 E5        29.92F FOG
WAUTOMA        CLOUDY    70  69  96 NE3       29.91F FOG
WISC RAPIDS    CLOUDY    71  69  93 E6        29.92F
CAMP DOUGLAS   PTCLDY    70  70 100 VRB1      29.88F FOG
$$

WIZ011>013-019>022-031-037>040-048>050-220800-
NORTHEAST WISCONSIN

CITY           SKY/WX    TMP DP  RH WIND       PRES   REMARKS
ANTIGO         FOG       63  63 100 SE5       29.95F VSB 3/4
STURGEON BAY   CLOUDY    64  63  94 SE6       29.94F
GREEN BAY      CLOUDY    66  65  96 NE3       29.92F FOG
MANITOWOC      FOG      N/A N/A N/A E3        29.93F VSB 1/4
APPLETON       CLOUDY    68  66  94 E3        29.93F FOG
CLINTONVILLE   CLOUDY    66  64  94 CALM      29.92F FOG
OSHKOSH        CLOUDY    71  70  96 E3        29.92S FOG
$$

WIZ032>034-041-042-053>061-220800-
SOUTHWEST WISCONSIN

CITY           SKY/WX    TMP DP  RH WIND       PRES   REMARKS
LA CROSSE      PTCLDY    75  71  87 S7        29.86F
SPARTA         PTCLDY    68  67  97 CALM      29.88F
VIROQUA        FAIR      71  71 100 SE5       29.90F
BOSCOBEL       FOG       71  69  93 CALM      29.88F VSB 1/4
PRAIRIE DU CHI CLEAR     71  69  92 E3        29.86F
PLATTEVILLE    FAIR      72  71  96 E5        29.90F
$$

WIZ056-057-062-063-064-067-068-220800-
SOUTH CENTRAL WISCONSIN

CITY           SKY/WX    TMP DP  RH WIND       PRES   REMARKS
BARABOO/DELLS  FOG       70  67  93 CALM      29.90F VSB 1
LONE ROCK      PTCLDY    73  69  87 CALM      29.89F FOG
WATERTOWN      FOG       70  70 100 CALM      29.90F VSB 1/4
MADISON        CLOUDY    72  70  93 CALM      29.90F FOG
MIDDLETON      CLOUDY    70  70 100 CALM      29.90F VSB 1/2
MONROE         CLOUDY    72  72 100 S5        29.90F FOG
JANESVILLE     MOCLDY    72  70  94 SE3       29.89F FOG
$$

WIZ051-052-058>065-066-070>072-220800-
SOUTHEAST WISCONSIN

CITY           SKY/WX    TMP DP  RH WIND       PRES   REMARKS
MILWAUKEE      FOG       70  69  97 S3        29.91F VSB 1/8
WAUKESHA       FOG       68  68 100 SE5       29.93S VSB 1/2
MILWAUKEE/TIMM FOG       68  64  88 CALM      29.92F VSB 3/4
RACINE         FOG       71  69  93 CALM      29.93F VSB 1
BURLINGTON     FOG       69  69  99 CALM      29.91F VSB 1
KENOSHA        FOG       71  71 100 E5        29.92F VSB 1/4
FOND DU LAC    CLOUDY    70  68  93 SE6       29.91F FOG
SHEBOYGAN      FOG       67  66  97 CALM      29.92F VSB 1/2
WEST BEND      FOG       66  64  94 CALM      29.91F VSB 1/4
JUNEAU         HAZE      70  45  41 SE5       29.92F VSB 1/4
$$

LSZ147-162-220800-
LAKE SUPERIOR

STATION/POSITION TIME  TEMP    WIND        PRES    WAVE
                       AIR SEA DIR/SP/G            HT/PER
                 (UTC) (F)     (DEG/KT/KT) (MB)    (FT/S)
W MID LAKE BUOY  0650   58 58   70/ 12/ 14 1013.0F   2/ 4
DEVILS ISLAND    0700   60      70/ 10/ 11 1012.6F
PORT WING        0640   61      40/ 10/ 13 1012.5F
SAXON HARBOR     0640   66        CALM     1012.5S
$$

LMZ867-665-643>646-220800-
LAKE MICHIGAN

STATION/POSITION TIME  TEMP    WIND        PRES    WAVE
                       AIR SEA DIR/SP/G            HT/PER
                 (UTC) (F)     (DEG/KT/KT) (MB)    (FT/S)
N MID LAKE BUOY  0650   66 65   70/  6/  8 1013.7F   0
NORTHPORT PIER   0600   66     140/  2/  4 1014.6F
SISTER BAY       0441   66     130/  6/  8   N/A
ALGOMA LAKESHORE 0438          120/  5/  6   N/A
KEWAUNEE LAKESHO 0600   66     160/  3/  3 1013.4F
SHEBOYGAN LAKESH 0700   66 63  150/  1/  2 1013.3F
ATWATER BUOY     0600   69     130/  6/  6 1014.5F
MILWAUKEE LAKESH 0600   69     220/  1/  2   N/A
S MID LAKE BUOY  0650   69 69   90/  6/  8 1012.8F   0
KENOSHA   LAKESH 0700   70     120/  7/  7 1012.5F
$$

TC  - TEMPERATURE IN CELSIUS
VSB - VISIBILITY IN STATUTE MILES
WCI - WIND CHILL INDEX
HX  - HEAT INDEX




USA.gov is the U.S. government's official web portal to all federal, state and local government web resources and services.